CW3467 Weather Reports


Display with metric or nautical units.
time (UTC)temp
F
wind
direction
speed
MPH
gust
MPH
rain 1hr
in
rain 24hr
in
rain mn
in
humidity
%
barometer
mb
20200709141327 91 223 0.0 3.0 0.00 0.00 0.00 38 1017.9
20200709140822 91 210 1.0 4.0 0.00 0.00 0.00 38 1017.9
20200709140318 91 226 1.0 4.0 0.00 0.00 0.00 39 1018.0
20200709135827 91 236 1.0 5.0 0.00 0.00 0.00 39 1018.2
20200709135322 91 181 2.0 6.0 0.00 0.00 0.00 40 1018.0
20200709134835 91 189 3.0 6.0 0.00 0.00 0.00 41 1018.1
20200709134325 91 209 2.0 5.0 0.00 0.00 0.00 40 1018.0
20200709133817 91 221 1.0 6.0 0.00 0.00 0.00 41 1018.3
20200709133332 91 210 2.0 5.0 0.00 0.00 0.00 42 1018.4
20200709132819 90 164 1.0 5.0 0.00 0.00 0.00 42 1018.4
20200709132329 90 191 1.0 5.0 0.00 0.00 0.00 41 1018.6
20200709131821 89 205 2.0 4.0 0.00 0.00 0.00 43 1018.7
20200709131333 89 216 0.0 4.0 0.00 0.00 0.00 42 1018.4
20200709130819 88 219 1.0 3.0 0.00 0.00 0.00 45 1018.5
20200709130332 87 211 1.0 4.0 0.00 0.00 0.00 45 1018.5
20200709125821 86 128 1.0 4.0 0.00 0.00 0.00 43 1018.8
20200709125318 87 101 1.0 3.0 0.00 0.00 0.00 42 1018.8
20200709124829 88 86 0.0 4.0 0.00 0.00 0.00 41 1018.9
20200709124323 89 105 2.0 4.0 0.00 0.00 0.00 38 1018.9
20200709123833 89 214 1.0 4.0 0.00 0.00 0.00 41 1019.0
20200709123322 88 240 1.0 4.0 0.00 0.00 0.00 40 1018.9
20200709122833 88 259 1.0 4.0 0.00 0.00 0.00 39 1018.9
20200709121824 88 214 0.0 4.0 0.00 0.00 0.00 44 1019.3
20200709121333 88 207 1.0 4.0 0.00 0.00 0.00 45 1019.4
20200709120816 87 262 1.0 6.0 0.00 0.00 0.00 45 1019.5
20200709120331 86 212 2.0 6.0 0.00 0.00 0.00 48 1019.5
20200709115821 86 265 2.0 5.0 0.00 0.00 0.00 47 1019.6
20200709115331 86 220 2.0 5.0 0.00 0.00 0.00 49 1019.6
20200709114834 85 251 0.0 4.0 0.00 0.00 0.00 48 1019.3
20200709114326 84 211 1.0 5.0 0.00 0.00 0.00 51 1019.4
20200709113818 84 148 2.0 5.0 0.00 0.00 0.00 51 1019.4
20200709113332 84 262 1.0 2.0 0.00 0.00 0.00 53 1019.6
20200709112826 84 179 0.0 2.0 0.00 0.00 0.00 53 1019.5
20200709112322 85 213 0.0 4.0 0.00 0.00 0.00 52 1019.5
20200709111816 84 212 1.0 5.0 0.00 0.00 0.00 49 1019.5
20200709111330 85 174 2.0 5.0 0.00 0.00 0.00 50 1019.5
20200709110816 86 228 2.0 5.0 0.00 0.00 0.00 49 1019.5
20200709110327 86 256 2.0 3.0 0.00 0.00 0.00 50 1019.2
20200709105821 85 212 1.0 3.0 0.00 0.00 0.00 51 1019.2
20200709105316 85 214 0.0 4.0 0.00 0.00 0.00 51 1019.5
20200709104827 85 160 1.0 4.0 0.00 0.00 0.00 50 1019.4
20200709104319 84 263 0.0 2.0 0.00 0.00 0.00 49 1019.4
20200709103833 84 175 0.0 3.0 0.00 0.00 0.00 49 1019.5
20200709103326 84 153 1.0 6.0 0.00 0.00 0.00 50 1019.5
20200709102817 84 298 2.0 8.0 0.00 0.00 0.00 50 1019.5
20200709102330 84 255 2.0 8.0 0.00 0.00 0.00 51 1019.3
20200709101815 83 211 2.0 5.0 0.00 0.00 0.00 55 1019.2
20200709101323 82 278 2.0 5.0 0.00 0.00 0.00 54 1019.3
20200709100827 82 313 2.0 5.0 0.00 0.00 0.00 55 1019.4
20200709100319 83 278 2.0 5.0 0.00 0.00 0.00 55 1019.5
20200709095828 82 266 1.0 4.0 0.00 0.00 0.00 56 1019.7
20200709095321 81 303 2.0 4.0 0.00 0.00 0.00 57 1019.7
20200709094832 81 288 1.0 3.0 0.00 0.00 0.00 55 1019.7
20200709094324 80 340 0.0 3.0 0.00 0.00 0.00 58 1019.6
20200709093816 81 350 1.0 3.0 0.00 0.00 0.00 56 1019.8
20200709093324 80 217 0.0 5.0 0.00 0.00 0.00 59 1020.4
20200709092814 80 195 2.0 5.0 0.00 0.00 0.00 60 1020.6
20200709092323 79 202 2.0 6.0 0.00 0.00 0.00 61 1020.5
20200709091319 77 149 0.0 6.0 0.00 0.00 0.00 64 1020.2
20200709090822 76 120 2.0 6.0 0.00 0.00 0.00 65 1020.2
20200709090317 76 107 2.0 5.0 0.00 0.00 0.00 68 1019.9
20200709085830 75 138 2.0 3.0 0.00 0.00 0.00 68 1019.9
20200709085323 75 136 2.0 2.0 0.00 0.00 0.00 68 1019.7
20200709084829 75 128 1.0 4.0 0.00 0.00 0.00 66 1020.2
20200709084323 76 181 1.0 6.0 0.00 0.00 0.00 66 1020.2
20200709083816 77 182 3.0 6.0 0.00 0.00 0.00 65 1020.2
20200709083329 77 227 0.0 2.0 0.00 0.00 0.00 62 1020.2
20200709082821 77 217 0.0 4.0 0.00 0.00 0.00 62 1020.2
20200709082316 77 252 2.0 4.0 0.00 0.00 0.00 62 1019.9
20200709081827 77 202 1.0 3.0 0.00 0.00 0.00 61 1020.0
20200709081318 77 287 1.0 3.0 0.00 0.00 0.00 61 1019.8
20200709080822 78 314 1.0 2.0 0.00 0.00 0.00 58 1020.1
20200709080317 79 192 0.0 1.0 0.00 0.00 0.00 57 1020.2
20200709075822 78 191 0.0 5.0 0.00 0.00 0.00 58 1020.3
20200709075334 77 191 2.0 5.0 0.00 0.00 0.00 60 1020.4
20200709074825 77 212 0.0 3.0 0.00 0.00 0.00 60 1020.3
20200709074317 76 227 0.0 4.0 0.00 0.00 0.00 60 1020.3
20200709073829 76 219 2.0 4.0 0.00 0.00 0.00 62 1020.0
20200709073325 75 266 0.0 3.0 0.00 0.00 0.00 64 1019.8
20200709072817 74 301 1.0 3.0 0.00 0.00 0.00 65 1019.9
20200709072331 75 281 1.0 3.0 0.00 0.00 0.00 65 1019.9
20200709071821 75 267 1.0 3.0 0.00 0.00 0.00 64 1019.8
20200709071329 76 100 0.0 0.0 0.00 0.00 0.00 63 1019.7
20200709070832 75 100 0.0 0.0 0.00 0.00 0.00 64 1019.9
20200709070325 74 100 0.0 0.0 0.00 0.00 0.00 65 1020.1
20200709065816 74 100 0.0 1.0 0.00 0.00 0.00 65 1019.9
20200709065329 74 229 0.0 2.0 0.00 0.00 0.00 65 1019.9
20200709064821 73 217 0.0 5.0 0.00 0.00 0.00 68 1019.9
20200709064333 73 203 1.0 5.0 0.00 0.00 0.00 69 1020.1
20200709063826 73 203 1.0 3.0 0.00 0.00 0.00 69 1020.1
20200709063318 73 205 0.0 3.0 0.00 0.00 0.00 68 1019.9
20200709062829 72 343 0.0 4.0 0.00 0.00 0.00 68 1019.7
20200709062319 72 317 1.0 3.0 0.00 0.00 0.00 69 1019.7
20200709061828 71 306 0.0 2.0 0.00 0.00 0.00 71 1020.0
20200709061319 71 305 0.0 2.0 0.00 0.00 0.00 73 1019.7
20200709060824 71 15 0.0 0.0 0.00 0.00 0.00 72 1019.6
20200709060318 71 15 0.0 0.0 0.00 0.00 0.00 72 1019.6
20200709055830 70 15 0.0 0.0 0.00 0.00 0.00 73 1019.9
20200709055324 69 359 0.0 2.0 0.00 0.00 0.00 74 1019.8
20200709054834 69 90 0.0 2.0 0.00 0.00 0.00 77 1019.9
20200709054325 68 99 0.0 2.0 0.00 0.00 0.00 78 1019.9
20200709053818 68 139 0.0 3.0 0.00 0.00 0.00 78 1020.2
20200709053327 68 93 1.0 2.0 0.00 0.00 0.00 78 1019.8
20200709052817 68 110 0.0 4.0 0.00 0.00 0.00 77 1019.7
20200709052332 68 201 2.0 4.0 0.00 0.00 0.00 77 1019.7
20200709051823 68 203 1.0 2.0 0.00 0.00 0.00 76 1019.6
20200709051334 68 108 0.0 0.0 0.00 0.00 0.00 76 1019.4
20200709050819 68 107 0.0 0.0 0.00 0.00 0.00 77 1019.0
20200709050332 68 107 0.0 0.0 0.00 0.00 0.00 76 1018.9
20200709045824 68 107 0.0 0.0 0.00 0.00 0.00 76 1018.9
20200709045318 68 105 0.0 0.0 0.00 0.00 0.00 76 1018.8
20200709044326 68 87 0.0 0.0 0.00 0.00 0.00 76 1018.3
20200709043817 68 87 0.0 0.0 0.00 0.00 0.00 76 1018.4
20200709043333 68 87 0.0 0.0 0.00 0.00 0.00 76 1018.4
20200709042823 67 356 0.0 4.0 0.00 0.00 0.00 76 1018.4
20200709042318 67 325 0.0 4.0 0.00 0.00 0.00 77 1018.3
20200709041830 68 326 2.0 4.0 0.00 0.00 0.00 76 1018.4
20200709041321 68 293 2.0 3.0 0.00 0.00 0.00 74 1018.3
20200709040823 69 304 1.0 4.0 0.00 0.00 0.00 74 1018.0
20200709040316 69 119 0.0 7.0 0.00 0.00 0.00 74 1017.9
20200709035827 69 196 3.0 7.0 0.00 0.00 0.00 73 1017.9
20200709035320 69 132 6.0 8.0 0.00 0.00 0.00 73 1018.1
20200709034828 68 129 5.0 8.0 0.00 0.00 0.00 75 1018.0
20200709034326 67 96 3.0 6.0 0.00 0.00 0.00 77 1017.9
20200709033817 67 113 4.0 6.0 0.00 0.00 0.00 77 1017.9
20200709033324 68 98 4.0 6.0 0.00 0.00 0.00 76 1017.8
20200709032827 69 225 0.0 2.0 0.00 0.00 0.00 74 1017.7
20200709032318 69 153 0.0 3.0 0.00 0.00 0.00 74 1017.1
20200709031318 70 299 2.0 4.0 0.00 0.00 0.00 70 1017.2
20200709030823 69 270 2.0 3.0 0.00 0.00 0.00 74 1017.2
20200709030334 69 318 0.0 2.0 0.00 0.00 0.00 75 1017.2
20200709025824 69 326 0.0 2.0 0.00 0.00 0.00 75 1017.3
20200709025319 68 34 0.0 2.0 0.00 0.00 0.00 77 1017.4
20200709024824 68 65 0.0 2.0 0.00 0.00 0.00 78 1017.7
20200709024317 68 58 0.0 2.0 0.00 0.00 0.00 78 1017.5
20200709023830 68 38 0.0 0.0 0.00 0.00 0.00 78 1017.4
20200709023319 68 63 0.0 2.0 0.00 0.00 0.00 78 1017.6
20200709022830 68 37 0.0 4.0 0.00 0.00 0.00 77 1017.8
20200709022325 69 14 1.0 3.0 0.00 0.00 0.00 76 1017.7
20200709021835 69 82 0.0 0.0 0.00 0.00 0.00 77 1017.8
20200709021322 68 82 0.0 2.0 0.00 0.00 0.00 77 1017.9
20200709020826 68 82 1.0 2.0 0.00 0.00 0.00 77 1017.9
20200709020334 69 118 0.0 0.0 0.00 0.00 0.00 75 1017.8
20200709015825 68 118 0.0 2.0 0.00 0.00 0.00 76 1017.6
20200709015319 68 154 0.0 2.0 0.00 0.00 0.00 76 1017.6
20200709014827 68 214 0.0 2.0 0.00 0.00 0.00 76 1017.5
20200709014318 69 166 0.0 6.0 0.00 0.00 0.00 76 1017.7
20200709013832 69 122 0.0 6.0 0.00 0.00 0.00 76 1017.7
20200709013324 69 197 2.0 5.0 0.00 0.00 0.00 77 1017.6
20200709012815 70 255 0.0 1.0 0.00 0.00 0.00 76 1017.5
20200709012330 70 254 0.0 3.0 0.00 0.00 0.00 75 1017.6
20200709011816 70 131 0.0 3.0 0.00 0.00 0.00 75 1017.8
20200709011323 70 25 0.0 5.0 0.00 0.00 0.00 77 1017.7
20200709010826 69 94 3.0 5.0 0.00 0.00 0.00 77 1017.8
20200709010316 69 127 2.0 4.0 0.00 0.00 0.00 77 1017.8
20200709005828 69 86 1.0 6.0 0.00 0.00 0.00 77 1018.2
20200709005323 69 91 2.0 6.0 0.00 0.00 0.00 78 1018.5
20200709004832 69 146 3.0 5.0 0.00 0.00 0.00 77 1018.5
20200709004321 70 71 0.0 0.0 0.00 0.00 0.00 76 1018.4
20200709003832 70 34 0.0 0.0 0.00 0.00 0.00 75 1018.5
20200709003318 70 11 0.0 0.0 0.00 0.00 0.00 75 1018.8
20200709002829 70 105 0.0 0.0 0.00 0.00 0.00 76 1018.6
20200709002323 70 105 0.0 3.0 0.00 0.00 0.00 76 1018.6
20200709001830 70 105 0.0 3.0 0.00 0.00 0.00 76 1018.7
20200709001318 70 119 2.0 3.0 0.00 0.00 0.00 76 1019.0
20200709000822 70 91 1.0 5.0 0.00 0.00 0.00 76 1019.0
20200709000327 70 109 3.0 5.0 0.00 0.00 0.00 75 1019.0
20200708235830 71 165 1.0 4.0 0.00 0.00 0.00 74 1019.0
20200708235325 71 193 0.0 3.0 0.00 0.00 0.00 73 1018.9
20200708234827 71 200 1.0 3.0 0.00 0.00 0.00 73 1019.0
20200708234320 72 70 0.0 0.0 0.00 0.00 0.00 73 1018.9
20200708233832 72 338 0.0 0.0 0.00 0.00 0.00 73 1019.0
20200708233324 72 105 0.0 0.0 0.00 0.00 0.00 72 1018.9
20200708232835 72 75 0.0 0.0 0.00 0.00 0.00 73 1019.3
20200708232326 71 76 0.0 0.0 0.00 0.00 0.00 73 1019.5
20200708231835 71 93 0.0 0.0 0.00 0.00 0.00 73 1019.5
20200708231325 72 94 0.0 0.0 0.00 0.00 0.00 73 1019.6
20200708230829 72 79 0.0 0.0 0.00 0.00 0.00 73 1019.7
20200708230334 72 79 0.0 0.0 0.00 0.00 0.00 72 1019.5
20200708225822 72 33 0.0 0.0 0.00 0.00 0.00 71 1019.5
20200708225336 72 33 0.0 0.0 0.00 0.00 0.00 71 1019.4
20200708224823 73 33 0.0 0.0 0.00 0.00 0.00 70 1019.6
20200708224315 73 33 0.0 0.0 0.00 0.00 0.00 70 1019.6
20200708223829 73 33 0.0 0.0 0.00 0.00 0.00 70 1019.5
20200708223318 73 333 0.0 1.0 0.00 0.00 0.00 70 1019.5
20200708222830 73 323 0.0 2.0 0.00 0.00 0.00 70 1019.5
20200708222324 73 332 1.0 2.0 0.00 0.00 0.00 70 1019.6
20200708221830 73 56 0.0 1.0 0.00 0.00 0.00 70 1019.5
20200708221318 73 56 0.0 2.0 0.00 0.00 0.00 70 1019.4
20200708220822 73 18 1.0 2.0 0.00 0.00 0.00 70 1019.7
20200708220331 73 37 0.0 1.0 0.00 0.00 0.00 69 1019.9
20200708215821 74 68 0.0 0.0 0.00 0.00 0.00 69 1020.1
20200708215336 74 68 0.0 0.0 0.00 0.00 0.00 68 1020.1
20200708214824 74 336 0.0 0.0 0.00 0.00 0.00 67 1020.1
20200708214315 74 336 0.0 1.0 0.00 0.00 0.00 67 1020.1
20200708213831 75 336 0.0 2.0 0.00 0.00 0.00 66 1019.7
20200708213324 75 354 1.0 2.0 0.00 0.00 0.00 66 1019.6
20200708212818 75 297 0.0 2.0 0.00 0.00 0.00 66 1019.5
20200708212331 75 288 1.0 3.0 0.00 0.00 0.00 66 1019.8
20200708211824 75 261 0.0 4.0 0.00 0.00 0.00 65 1019.8
20200708211315 76 311 2.0 4.0 0.00 0.00 0.00 64 1019.7
20200708210820 76 333 1.0 4.0 0.00 0.00 0.00 64 1019.7
20200708210316 76 90 0.0 5.0 0.00 0.00 0.00 63 1019.7
20200708205827 76 76 1.0 7.0 0.00 0.00 0.00 63 1019.7
20200708205321 76 97 5.0 12.0 0.00 0.00 0.00 63 1019.5
20200708204824 76 108 7.0 12.0 0.00 0.00 0.00 63 1019.6
20200708204329 76 81 8.0 13.0 0.00 0.00 0.00 63 1020.0
20200708203820 76 139 6.0 13.0 0.00 0.00 0.00 64 1020.1
20200708203334 76 106 7.0 13.0 0.00 0.00 0.00 64 1020.1
20200708202826 76 127 8.0 13.0 0.00 0.00 0.00 64 1020.3
20200708202320 76 111 8.0 13.0 0.00 0.00 0.00 64 1020.2
20200708201831 76 112 8.0 14.0 0.00 0.00 0.00 64 1020.2
20200708201324 76 114 9.0 21.0 0.00 0.00 0.00 64 1019.9
20200708200829 76 120 12.0 21.0 0.00 0.00 0.00 63 1019.7
20200708200324 76 130 10.0 17.0 0.00 0.00 0.00 63 1019.6
20200708195814 77 142 8.0 12.0 0.00 0.00 0.00 62 1019.8
20200708195324 77 89 2.0 8.0 0.00 0.00 0.00 60 1019.7
20200708194856 77 101 4.0 8.0 0.00 0.00 0.00 60 1019.7
20200708194328 78 77 5.0 12.0 0.00 0.00 0.00 59 1019.5
20200708193822 78 106 6.0 15.0 0.00 0.00 0.00 58 1019.2
20200708193335 78 108 10.0 15.0 0.00 0.00 0.00 58 1019.0
20200708192825 79 149 9.0 15.0 0.00 0.00 0.00 57 1018.5
20200708192342 79 122 8.0 15.0 0.00 0.00 0.00 57 1018.3
20200708191849 79 133 8.0 18.0 0.00 0.00 0.00 56 1018.2
20200708191319 80 112 7.0 18.0 0.00 0.00 0.00 55 1018.2
20200708190824 80 124 9.0 19.0 0.00 0.00 0.00 55 1018.0
20200708190316 80 148 12.0 19.0 0.00 0.00 0.00 55 1018.0
20200708185827 81 144 12.0 17.0 0.00 0.00 0.00 55 1017.9
20200708185320 81 108 8.0 13.0 0.00 0.00 0.00 54 1017.9
20200708184833 81 127 8.0 14.0 0.00 0.00 0.00 53 1017.7
20200708184324 82 122 6.0 15.0 0.00 0.00 0.00 53 1017.4
20200708183818 82 113 9.0 16.0 0.00 0.00 0.00 52 1017.3
20200708183330 82 137 8.0 18.0 0.00 0.00 0.00 51 1017.7
20200708182821 83 74 9.0 15.0 0.00 0.00 0.00 50 1017.4
20200708182335 83 117 10.0 17.0 0.00 0.00 0.00 48 1017.4
20200708181828 84 106 11.0 17.0 0.00 0.00 0.00 44 1017.4
20200708181318 85 120 4.0 12.0 0.00 0.00 0.00 39 1017.2
20200708180825 85 108 5.0 12.0 0.00 0.00 0.00 39 1017.1
20200708180318 85 102 5.0 14.0 0.00 0.00 0.00 39 1016.8
20200708175830 85 110 8.0 14.0 0.00 0.00 0.00 39 1016.8
20200708175323 85 104 10.0 16.0 0.00 0.00 0.00 38 1016.6
20200708174835 85 117 8.0 16.0 0.00 0.00 0.00 38 1016.8
20200708174321 85 122 8.0 13.0 0.00 0.00 0.00 38 1016.6
20200708173834 85 120 9.0 14.0 0.00 0.00 0.00 38 1016.6
20200708173325 86 120 9.0 15.0 0.00 0.00 0.00 38 1016.6
20200708172815 86 116 11.0 15.0 0.00 0.00 0.00 37 1016.5
20200708172329 86 127 10.0 15.0 0.00 0.00 0.00 37 1016.4
20200708171822 86 137 6.0 14.0 0.00 0.00 0.00 40 1016.1
20200708171314 86 120 8.0 13.0 0.00 0.00 0.00 39 1016.0
20200708170818 87 139 9.0 17.0 0.00 0.00 0.00 39 1016.1
20200708170332 87 127 9.0 17.0 0.00 0.00 0.00 38 1016.0
20200708165823 88 127 6.0 11.0 0.00 0.00 0.00 38 1016.0
20200708165333 89 134 5.0 8.0 0.00 0.00 0.00 36 1016.0
20200708164824 90 203 2.0 6.0 0.00 0.00 0.00 35 1016.0
20200708164316 90 196 3.0 7.0 0.00 0.00 0.00 36 1016.1
20200708163830 90 200 4.0 7.0 0.00 0.00 0.00 37 1015.8
20200708163324 90 197 1.0 5.0 0.00 0.00 0.00 36 1015.7
20200708162814 90 246 1.0 6.0 0.00 0.00 0.00 36 1015.8
20200708162329 90 221 2.0 6.0 0.00 0.00 0.00 36 1016.1
20200708161821 91 262 3.0 5.0 0.00 0.00 0.00 33 1016.2
20200708161334 92 262 1.0 5.0 0.00 0.00 0.00 32 1016.2
20200708160818 91 217 2.0 5.0 0.00 0.00 0.00 33 1016.2
20200708155818 91 189 1.0 4.0 0.00 0.00 0.00 34 1016.3
20200708155329 91 167 1.0 4.0 0.00 0.00 0.00 33 1016.1
20200708154818 91 233 1.0 3.0 0.00 0.00 0.00 34 1016.1
20200708154328 91 162 2.0 3.0 0.00 0.00 0.00 33 1016.4
20200708153817 91 198 2.0 4.0 0.00 0.00 0.00 33 1016.5
20200708152823 90 210 0.0 4.0 0.00 0.00 0.00 33 1016.5
20200708152316 91 253 2.0 5.0 0.00 0.00 0.00 31 1016.5
20200708151827 91 145 2.0 5.0 0.00 0.00 0.00 34 1016.6
20200708151319 91 203 1.0 4.0 0.00 0.00 0.00 33 1016.4
20200708150820 91 233 0.0 4.0 0.00 0.00 0.00 33 1016.5
20200708150324 91 212 1.0 4.0 0.00 0.00 0.00 32 1016.8
20200708145817 91 220 1.0 4.0 0.00 0.00 0.00 33 1016.8
20200708145328 92 212 2.0 4.0 0.00 0.00 0.00 31 1016.9
20200708144819 91 154 0.0 3.0 0.00 0.00 0.00 34 1016.8
20200708144332 90 240 1.0 3.0 0.00 0.00 0.00 33 1016.9
20200708143824 89 111 0.0 4.0 0.00 0.00 0.00 32 1017.0
20200708143320 90 266 1.0 3.0 0.00 0.00 0.00 33 1017.1
20200708142832 90 228 0.0 2.0 0.00 0.00 0.00 31 1016.9
20200708142326 89 210 0.0 4.0 0.00 0.00 0.00 32 1017.0
20200708141817 89 233 1.0 4.0 0.00 0.00 0.00 32 1017.2